[[{"header":{"parameterUnit":"m.s-1","parameterCategory":1,"la1":30.2991,"la2":30.254,"lo1":-89.0895,"lo2":-89.0444,"dy":0.0017,"dx":0.0017,"nx":28,"ny":28,"refTime":"2023-11-01T21:00:00:Z","depth":0,"parameterNumber":2,"parameterNumberName":"U-component_of_WINDS"},"data":[0,0,0,0,0,0,0,0,0,0,0,0,0,0,0,0,0,0,0,0,0,0,0,0,0,0,0,0,0,0,0,0,0,0,0,0,0,0,0,0,0,0,0,0,0,0,0,0,0,0,0,0,0,0,0,0,0,0,-3.4069,-3.407,0,-3.4125,-3.4126,-3.4127,-3.4035,-3.4032,-3.4029,-3.4026,-3.4083,-3.4088,-3.4092,0,0,0,0,0,0,0,0,0,0,0,0,0,-3.3883,-3.3887,-3.4069,-3.407,-3.4071,-3.4125,-3.4126,-3.4127,-3.4036,-3.4032,-3.4028,-3.4024,-3.4082,-3.4087,-3.4092,0,0,0,0,0,0,0,0,0,0,0,0,0,-3.3954,-3.3888,-3.4069,-3.4032,-3.4029,-3.4125,-3.4126,-3.4127,-3.4036,-3.4032,-3.4027,-3.4022,-3.408,-3.4087,-3.4093,-3.4229,0,0,-3.4114,-3.4117,0,0,0,0,0,0,0,0,-3.395,-3.3961,-3.4037,-3.4034,-3.4032,-3.4068,-3.4081,-3.4161,-3.4038,-3.4034,-3.4026,-3.402,-3.4082,-3.4088,-3.4109,-3.4231,-3.4234,-3.4114,-3.4118,-3.4121,-3.4123,0,0,0,0,0,0,0,-3.3945,-3.3958,-3.4091,-3.4038,-3.4035,-3.4012,-3.4017,-3.4096,-3.4084,-3.4034,-3.4027,-3.4035,-3.408,-3.4103,-3.411,-3.4235,-3.4114,-3.412,-3.4124,-3.4127,-3.447,-3.4475,0,0,0,0,0,0,-3.3945,-3.3954,-3.409,-3.4093,-3.3978,-3.4019,-3.4025,-3.4061,-3.4082,-3.4081,-3.4039,-3.403,-3.4094,-3.4102,-3.4112,-3.4271,-3.4121,-3.4127,-3.4131,-3.4465,-3.4471,-3.4476,0,0,0,0,0,0,-3.3941,-3.3958,-3.4087,-3.4022,-3.4037,-3.4027,-3.4069,-3.4065,-3.4088,-3.4086,-3.4084,-3.4065,-3.4091,-3.4102,-3.42,-3.4272,-3.413,-3.4136,-3.4459,-3.4467,-3.4474,-3.4592,0,0,0,0,0,0,-3.3936,-3.3957,-3.4009,-3.4024,-3.4041,-3.4176,-3.4074,-3.4069,-3.41,-3.4089,-3.411,-3.4109,-3.4088,-3.4191,-3.4207,-3.4278,-3.4142,-3.4452,-3.4462,-3.4471,-3.4581,-3.4602,-3.462,0,0,0,0,0,-3.393,-3.404,-3.4012,-3.4029,-3.4105,-3.418,-3.4189,-3.4162,-3.4106,-3.4157,-3.4156,-3.4108,-3.4261,-3.4201,-3.4219,-3.4294,-3.4448,-3.4459,-3.4471,-3.4572,-3.4598,-3.462,0,0,0,0,0,0,-3.4034,-3.4041,-3.401,-3.4128,-3.4154,-3.4164,-3.4228,-3.4191,-3.4233,-3.4222,-3.4186,-3.4192,-3.4297,-3.4305,-3.4238,-3.4425,-3.4345,-3.436,-3.4416,-3.4441,-3.446,-3.4456,-3.4147,0,0,0,0,0,-3.407,-3.413,-3.4134,-3.4238,-3.4252,-3.4238,-3.427,-3.4247,-3.4272,-3.4283,-3.4289,-3.4315,-3.4369,-3.4405,-3.4455,-3.4582,-3.4585,-3.4642,-3.4661,-3.4677,-3.4691,-3.4759,-3.4784,-3.4514,-3.4514,-3.4514,0,0,-3.4146,-3.4158,-3.4198,-3.4259,-3.4276,-3.4339,-3.4248,-3.4319,-3.4365,-3.4293,-3.4386,-3.4392,-3.4419,-3.4532,-3.4582,-3.4541,-3.4766,-3.4692,-3.4705,-3.471,-3.4773,-3.4799,-3.4821,-3.4522,-3.452,-3.4519,0,0,-3.4317,-3.4333,-3.442,-3.4439,-3.4466,-3.4456,-3.4478,-3.4494,-3.4494,-3.4587,-3.4534,-3.4589,-3.4682,-3.4704,-3.4727,-3.4905,-3.4863,-3.4922,-3.5025,-3.5091,-3.5112,-3.5131,-3.5194,-3.5217,-3.4936,-3.4936,-3.4937,0,-3.4409,-3.4502,-3.447,-3.4545,-3.4573,-3.451,-3.4599,-3.4619,-3.4661,-3.4682,-3.4636,-3.4752,-3.4766,-3.4882,-3.4926,-3.4947,-3.497,-3.492,-3.5111,-3.513,-3.5147,-3.5207,-3.5231,-3.4943,-3.4943,-3.4942,-3.4941,0,-3.4613,-3.4678,-3.4745,-3.4787,-3.4823,-3.4904,-3.4885,-3.4924,-3.4898,-3.4893,-3.4988,-3.5002,-3.5053,-3.5079,-3.5054,-3.5193,-3.5167,-3.5117,-3.5035,-3.518,-3.5236,-3.5259,-3.4954,-3.4951,-3.4949,-3.4947,0,0,-3.4851,-3.4874,-3.49,-3.4918,-3.4943,-3.4992,-3.507,-3.512,-3.5155,-3.5186,-3.525,-3.533,-3.5284,-3.5311,-3.5288,-3.5346,-3.5486,-3.5288,-3.5288,-3.5324,-3.5639,-3.5676,-3.5703,-3.5457,-3.5462,-3.5465,-3.5636,0,-3.5022,-3.5156,-3.513,-3.5261,-3.532,-3.5262,-3.533,-3.5352,-3.5349,-3.5399,-3.5396,-3.5453,-3.5388,-3.5404,-3.5458,-3.5457,-3.5548,-3.5444,-3.5517,-3.552,-3.5512,-3.5733,-3.5773,-3.5934,-3.5658,-3.5662,-3.5664,0,-3.5238,-3.5277,-3.5414,-3.5429,-3.5453,-3.5515,-3.5557,-3.5606,-3.563,-3.5624,-3.5653,-3.5619,-3.5696,-3.5614,-3.572,-3.565,-3.5678,-3.5682,-3.5687,-3.5693,-3.5601,-3.5745,-3.5984,-3.6009,-3.5698,-3.5696,-3.5693,0,-3.5399,-3.5485,-3.5578,-3.5595,-3.5615,-3.5659,-3.567,-3.5689,-3.572,-3.5758,-3.5778,-3.5824,-3.585,-3.5887,-3.5866,-3.5808,-3.5976,-3.5891,-3.5972,-3.5973,-3.6011,-3.6009,-3.6259,-3.6029,-3.6029,-3.6028,-3.6028,0,-3.5592,-3.5678,-3.565,-3.5708,-3.5802,-3.5771,-3.5866,-3.5869,-3.5887,-3.5943,-3.5895,-3.595,-3.5919,-3.5971,-3.5955,-3.6045,-3.6057,-3.6054,-3.6049,-3.6059,-3.6059,-3.6077,-3.6065,-3.6035,-3.6033,-3.6032,-3.6031,0,-3.5787,-3.5772,-3.5869,-3.588,-3.5884,-3.5954,-3.5962,-3.6016,-3.6009,-3.6081,-3.6096,-3.6086,-3.6144,-3.6127,-3.6191,-3.618,-3.6294,-3.6275,-3.6286,-3.6281,-3.6364,-3.6356,-3.6634,-3.6668,-3.6416,-3.6419,-3.6421,0,-3.5911,-3.5976,-3.5993,-3.6028,-3.6041,-3.6097,-3.6129,-3.61,-3.6135,-3.6167,-3.6217,-3.6271,-3.6313,-3.6409,-3.6407,-3.6456,-3.6437,-3.6531,-3.6444,-3.6452,-3.6439,-3.6435,-3.6441,-3.6548,-3.6551,-3.6554,-3.6556,0,-3.6134,-3.6123,-3.617,-3.6215,-3.6253,-3.6287,-3.6317,-3.6348,-3.6321,-3.6363,-3.6422,-3.6454,-3.6519,-3.6573,-3.6617,-3.6627,-3.6588,-3.6583,-3.6604,-3.6615,-3.6619,-3.6618,-3.6333,-3.6577,-3.6575,-3.6573,-3.6572,-3.6571,-3.6297,-3.6352,-3.6372,-3.6426,-3.6445,-3.6474,-3.6524,-3.6523,-3.6572,-3.6622,-3.6602,-3.667,-3.6692,-3.6746,-3.6762,-3.6815,-3.6779,-3.681,-3.6818,-3.6826,-3.6837,-3.661,-3.6823,-3.6822,-3.6822,-3.6821,-3.6821,0,-3.6517,-3.6527,-3.6577,-3.6619,-3.6662,-3.662,-3.665,-3.6688,-3.6749,-3.6772,-3.6814,-3.6882,-3.6934,-3.6936,-3.6985,-3.7027,-3.701,-3.7041,-3.7038,-3.7041,-3.6866,-3.6843,-3.7054,-3.7054,-3.7054,-3.7054,-3.7054,-3.7054,-3.6637,-3.6727,-3.6718,-3.6817,-3.6826,-3.6892,-3.6913,-3.6939,-3.6957,-3.7035,-3.7078,-3.7079,-3.7094,-3.7143,-3.7189,-3.7188,-3.7209,-3.7247,-3.724,-3.7076,-3.7053,-3.7031,-3.7009,-3.7252,-3.7252,-3.741,-3.7411,-3.7412]},{"header":{"parameterUnit":"m.s-1","parameterCategory":1,"la1":30.2991,"la2":30.254,"lo1":-89.0895,"lo2":-89.0444,"dy":0.0017,"dx":0.0017,"nx":28,"ny":28,"refTime":"2023-11-01T21:00:00:Z","depth":0,"parameterNumber":3,"parameterNumberName":"V-component_of_WINDS"},"data":[0,0,0,0,0,0,0,0,0,0,0,0,0,0,0,0,0,0,0,0,0,0,0,0,0,0,0,0,0,0,0,0,0,0,0,0,0,0,0,0,0,0,0,0,0,0,0,0,0,0,0,0,0,0,0,0,0,0,-1.5868,-1.587,0,-1.5991,-1.5992,-1.5994,-1.6036,-1.6035,-1.6035,-1.6034,-1.6159,-1.6162,-1.6166,0,0,0,0,0,0,0,0,0,0,0,0,0,-1.5668,-1.5671,-1.5868,-1.587,-1.5871,-1.5991,-1.5992,-1.5994,-1.6036,-1.6035,-1.6035,-1.6034,-1.6157,-1.6162,-1.6166,0,0,0,0,0,0,0,0,0,0,0,0,0,-1.5769,-1.5672,-1.5868,-1.5907,-1.5911,-1.599,-1.5993,-1.5995,-1.6036,-1.6035,-1.6035,-1.6034,-1.6156,-1.6161,-1.6167,-1.6216,0,0,-1.6184,-1.6187,0,0,0,0,0,0,0,0,-1.5763,-1.5776,-1.5899,-1.5904,-1.5909,-1.5997,-1.5967,-1.6069,-1.6036,-1.5989,-1.6034,-1.6033,-1.6105,-1.6115,-1.614,-1.6222,-1.6227,-1.6185,-1.6188,-1.6191,-1.6192,0,0,0,0,0,0,0,-1.5756,-1.5771,-1.5917,-1.5901,-1.5907,-1.5917,-1.5931,-1.5987,-1.605,-1.5993,-1.5996,-1.601,-1.6108,-1.6134,-1.6143,-1.6229,-1.6185,-1.619,-1.6193,-1.6195,-1.6357,-1.6358,0,0,0,0,0,0,-1.5743,-1.5765,-1.5913,-1.5921,-1.5833,-1.5921,-1.5936,-1.597,-1.6049,-1.606,-1.6011,-1.6012,-1.6125,-1.6136,-1.6148,-1.621,-1.619,-1.6196,-1.6199,-1.6356,-1.6357,-1.6358,0,0,0,0,0,0,-1.5739,-1.5756,-1.5908,-1.5844,-1.5864,-1.5925,-1.5963,-1.5973,-1.5999,-1.6063,-1.6074,-1.6026,-1.6125,-1.614,-1.6199,-1.6215,-1.6198,-1.6203,-1.6355,-1.6356,-1.6357,-1.6335,0,0,0,0,0,0,-1.5733,-1.5754,-1.5774,-1.5844,-1.5867,-1.5958,-1.5964,-1.5976,-1.6009,-1.6011,-1.608,-1.6091,-1.6125,-1.619,-1.6204,-1.6222,-1.6208,-1.6354,-1.6355,-1.6357,-1.6334,-1.6335,-1.6336,0,0,0,0,0,-1.5725,-1.5763,-1.5775,-1.5792,-1.5894,-1.5959,-1.5972,-1.6011,-1.601,-1.603,-1.6071,-1.6088,-1.621,-1.6196,-1.6212,-1.6232,-1.6353,-1.6355,-1.6357,-1.6334,-1.6335,-1.6336,0,0,0,0,0,0,-1.5693,-1.5773,-1.5787,-1.5848,-1.5896,-1.5966,-1.5992,-1.6011,-1.6061,-1.6061,-1.6107,-1.6123,-1.6178,-1.6211,-1.6193,-1.6283,-1.6283,-1.6288,-1.626,-1.6261,-1.6262,-1.6253,-1.6213,0,0,0,0,0,-1.5693,-1.574,-1.5807,-1.5854,-1.5878,-1.5931,-1.596,-1.5987,-1.6038,-1.6059,-1.6104,-1.6152,-1.6202,-1.6233,-1.6282,-1.6339,-1.6354,-1.6361,-1.6361,-1.6362,-1.6366,-1.6397,-1.6401,-1.6365,-1.6365,-1.6365,0,0,-1.5694,-1.5743,-1.577,-1.5849,-1.5889,-1.5936,-1.5948,-1.5996,-1.6031,-1.6066,-1.6124,-1.6159,-1.6216,-1.6274,-1.6302,-1.6303,-1.6379,-1.6364,-1.6364,-1.6368,-1.64,-1.6403,-1.6406,-1.6366,-1.6366,-1.6366,0,0,-1.5718,-1.5761,-1.5804,-1.5844,-1.5905,-1.594,-1.595,-1.6017,-1.6041,-1.61,-1.6127,-1.6168,-1.6253,-1.6292,-1.6323,-1.6361,-1.6379,-1.6375,-1.6379,-1.6409,-1.6412,-1.6415,-1.6428,-1.6432,-1.6379,-1.6379,-1.6379,0,-1.5711,-1.5783,-1.5824,-1.5872,-1.5905,-1.5939,-1.5983,-1.6019,-1.6093,-1.6115,-1.6115,-1.6221,-1.6262,-1.6329,-1.6338,-1.6362,-1.6375,-1.6368,-1.6409,-1.6412,-1.6415,-1.6428,-1.6432,-1.6378,-1.6378,-1.6378,-1.6379,0,-1.5771,-1.582,-1.5848,-1.5918,-1.5954,-1.6,-1.6047,-1.6079,-1.6102,-1.6136,-1.6195,-1.6246,-1.6305,-1.6322,-1.6345,-1.6392,-1.6391,-1.64,-1.64,-1.6417,-1.6429,-1.6435,-1.6377,-1.6377,-1.6378,-1.6378,0,0,-1.578,-1.5871,-1.588,-1.5912,-1.5981,-1.6019,-1.6065,-1.6123,-1.6149,-1.6198,-1.6238,-1.6307,-1.6315,-1.635,-1.6378,-1.6404,-1.6429,-1.6409,-1.6411,-1.6411,-1.6483,-1.6477,-1.6482,-1.6442,-1.6443,-1.6444,-1.6478,0,-1.5813,-1.5898,-1.5935,-1.6003,-1.6048,-1.6079,-1.6119,-1.6165,-1.6198,-1.6241,-1.6277,-1.6325,-1.6332,-1.6354,-1.6381,-1.642,-1.6445,-1.6418,-1.6478,-1.6479,-1.6462,-1.6488,-1.6482,-1.6512,-1.6484,-1.6485,-1.6485,0,-1.5863,-1.5912,-1.5984,-1.6046,-1.6066,-1.6102,-1.6157,-1.6198,-1.625,-1.6272,-1.631,-1.6336,-1.6385,-1.6381,-1.6448,-1.643,-1.6456,-1.6479,-1.6481,-1.6488,-1.6483,-1.6496,-1.6523,-1.6527,-1.6494,-1.6493,-1.6492,0,-1.5862,-1.5945,-1.5999,-1.6025,-1.6099,-1.6123,-1.6155,-1.6206,-1.6238,-1.6286,-1.6307,-1.636,-1.6389,-1.6429,-1.6468,-1.6462,-1.6531,-1.6531,-1.655,-1.6549,-1.6563,-1.6562,-1.6595,-1.6581,-1.658,-1.658,-1.658,0,-1.5895,-1.5937,-1.5999,-1.6032,-1.608,-1.6122,-1.6168,-1.6202,-1.6247,-1.6287,-1.6317,-1.6353,-1.6403,-1.6445,-1.6475,-1.6526,-1.6539,-1.6557,-1.6565,-1.6554,-1.6552,-1.6572,-1.6571,-1.6582,-1.6581,-1.6581,-1.6581,0,-1.5901,-1.5944,-1.6005,-1.6069,-1.6086,-1.6119,-1.6174,-1.6206,-1.624,-1.6289,-1.6303,-1.6356,-1.6407,-1.645,-1.6517,-1.6538,-1.659,-1.6599,-1.6572,-1.6576,-1.6592,-1.659,-1.6639,-1.6648,-1.6627,-1.6628,-1.6628,0,-1.592,-1.5953,-1.6021,-1.6049,-1.6081,-1.6126,-1.6159,-1.6201,-1.6234,-1.6295,-1.632,-1.6373,-1.6418,-1.6497,-1.6541,-1.6592,-1.6603,-1.6616,-1.6611,-1.6599,-1.6602,-1.66,-1.6603,-1.6617,-1.6617,-1.6617,-1.6617,0,-1.5947,-1.5966,-1.6012,-1.6065,-1.6103,-1.6147,-1.6192,-1.6213,-1.6264,-1.6298,-1.6351,-1.6385,-1.6453,-1.6505,-1.6561,-1.6593,-1.6613,-1.6618,-1.6625,-1.6615,-1.6598,-1.6607,-1.6573,-1.6617,-1.6617,-1.6617,-1.6617,-1.6617,-1.596,-1.599,-1.6043,-1.6092,-1.613,-1.6171,-1.6204,-1.6242,-1.6286,-1.6345,-1.6367,-1.642,-1.647,-1.6547,-1.6579,-1.6621,-1.6623,-1.6634,-1.6636,-1.6638,-1.6636,-1.6591,-1.6631,-1.6631,-1.6631,-1.6631,-1.6631,0,-1.5988,-1.6023,-1.6068,-1.613,-1.6168,-1.6184,-1.6234,-1.6265,-1.6311,-1.6356,-1.6399,-1.6459,-1.6509,-1.6557,-1.6609,-1.6633,-1.6643,-1.6645,-1.6644,-1.6651,-1.6631,-1.662,-1.6636,-1.6636,-1.6636,-1.6636,-1.6636,-1.6636,-1.6008,-1.606,-1.6085,-1.6156,-1.619,-1.6243,-1.627,-1.6307,-1.6343,-1.6408,-1.645,-1.648,-1.6526,-1.6582,-1.6628,-1.6641,-1.6658,-1.6658,-1.6672,-1.6653,-1.6652,-1.6651,-1.6641,-1.6661,-1.6661,-1.6689,-1.6689,-1.6689]}]]